Year,Month,Day,Hour,Minute,Value (Times are PST for temperature in C)
2018,05,22,00,00,11.10
2018,05,22,00,01,11.10
2018,05,22,00,02,11.10
2018,05,22,00,03,11.10
2018,05,22,00,04,11.10
2018,05,22,00,05,11.10
2018,05,22,00,06,11.10
2018,05,22,00,07,11.10
2018,05,22,00,08,11.10
2018,05,22,00,09,11.10
2018,05,22,00,10,11.10
2018,05,22,00,11,11.00
2018,05,22,00,12,11.00
2018,05,22,00,13,11.00
2018,05,22,00,14,11.00
2018,05,22,00,15,11.00
2018,05,22,00,16,11.00
2018,05,22,00,17,11.00
2018,05,22,00,18,11.00
2018,05,22,00,19,10.90
2018,05,22,00,20,10.90
2018,05,22,00,21,10.90
2018,05,22,00,22,10.90
2018,05,22,00,23,10.90
2018,05,22,00,24,10.80
2018,05,22,00,25,10.80
2018,05,22,00,26,10.80
2018,05,22,00,27,10.80
2018,05,22,00,28,10.70
2018,05,22,00,29,10.70
2018,05,22,00,30,10.70
2018,05,22,00,31,10.60
2018,05,22,00,32,10.60
2018,05,22,00,33,10.60
2018,05,22,00,34,10.50
2018,05,22,00,35,10.40
2018,05,22,00,36,10.40
2018,05,22,00,37,10.40
2018,05,22,00,38,10.40
2018,05,22,00,39,10.30
2018,05,22,00,40,10.30
2018,05,22,00,41,10.40
2018,05,22,00,42,10.40
2018,05,22,00,43,10.40
2018,05,22,00,44,10.40
2018,05,22,00,45,10.40
2018,05,22,00,46,10.50
2018,05,22,00,47,10.50
2018,05,22,00,48,10.50
2018,05,22,00,49,10.50
2018,05,22,00,50,10.60
2018,05,22,00,51,10.60
2018,05,22,00,52,10.60
2018,05,22,00,53,10.60
2018,05,22,00,54,10.60
2018,05,22,00,55,10.60
2018,05,22,00,56,10.50
2018,05,22,00,57,10.50
2018,05,22,00,58,10.40
2018,05,22,00,59,10.40
2018,05,22,01,00,10.40
2018,05,22,01,01,10.30
2018,05,22,01,02,10.30
2018,05,22,01,03,10.30
2018,05,22,01,04,10.30
2018,05,22,01,05,10.20
2018,05,22,01,06,10.20
2018,05,22,01,07,10.10
2018,05,22,01,08,10.10
2018,05,22,01,09,10.10
2018,05,22,01,10,10.00
2018,05,22,01,11,10.00
2018,05,22,01,12,10.00
2018,05,22,01,13,9.90
2018,05,22,01,14,9.90
2018,05,22,01,15,9.90
2018,05,22,01,16,9.80
2018,05,22,01,17,9.80
2018,05,22,01,18,9.80
2018,05,22,01,19,9.80
2018,05,22,01,20,9.80
2018,05,22,01,21,9.70
2018,05,22,01,22,9.70
2018,05,22,01,23,9.70
2018,05,22,01,24,9.70
2018,05,22,01,25,9.60
2018,05,22,01,26,9.60
2018,05,22,01,27,9.60
2018,05,22,01,28,9.60
2018,05,22,01,29,9.60
2018,05,22,01,30,9.60
2018,05,22,01,31,9.50
2018,05,22,01,32,9.50
2018,05,22,01,33,9.40
2018,05,22,01,34,9.40
2018,05,22,01,35,9.40
2018,05,22,01,36,9.40
2018,05,22,01,37,9.40
2018,05,22,01,38,9.40
2018,05,22,01,39,9.30
2018,05,22,01,40,9.30
2018,05,22,01,41,9.30
2018,05,22,01,42,9.30
2018,05,22,01,43,9.30
2018,05,22,01,44,9.30
2018,05,22,01,45,9.30
2018,05,22,01,46,9.30
2018,05,22,01,47,9.30
2018,05,22,01,48,9.20
2018,05,22,01,49,9.20
2018,05,22,01,50,9.20
2018,05,22,01,51,9.20
2018,05,22,01,52,9.20
2018,05,22,01,53,9.20
2018,05,22,01,54,9.20
2018,05,22,01,55,9.10
2018,05,22,01,56,9.10
2018,05,22,01,57,9.10
2018,05,22,01,58,9.10
2018,05,22,01,59,9.00
2018,05,22,02,00,9.00
2018,05,22,02,01,9.00
2018,05,22,02,02,8.90
2018,05,22,02,03,8.90
2018,05,22,02,04,8.90
2018,05,22,02,05,8.90
2018,05,22,02,06,8.90
2018,05,22,02,07,8.90
2018,05,22,02,08,8.90
2018,05,22,02,09,8.90
2018,05,22,02,10,8.90
2018,05,22,02,11,8.80
2018,05,22,02,12,8.80
2018,05,22,02,13,8.80
2018,05,22,02,14,8.80
2018,05,22,02,15,8.80
2018,05,22,02,16,8.80
2018,05,22,02,17,8.80
2018,05,22,02,18,8.80
2018,05,22,02,19,8.80
2018,05,22,02,20,8.80
2018,05,22,02,21,8.80
2018,05,22,02,22,8.80
2018,05,22,02,23,8.70
2018,05,22,02,24,8.70
2018,05,22,02,25,8.70
2018,05,22,02,26,8.70
2018,05,22,02,27,8.70
2018,05,22,02,28,8.70
2018,05,22,02,29,8.60
2018,05,22,02,30,8.60
2018,05,22,02,31,8.60
2018,05,22,02,32,8.50
2018,05,22,02,33,8.50
2018,05,22,02,34,8.50
2018,05,22,02,35,8.50
2018,05,22,02,36,8.60
2018,05,22,02,37,8.60
2018,05,22,02,38,8.60
2018,05,22,02,39,8.60
2018,05,22,02,40,8.60
2018,05,22,02,41,8.60
2018,05,22,02,42,8.50
2018,05,22,02,43,8.50
2018,05,22,02,44,8.50
2018,05,22,02,45,8.40
2018,05,22,02,46,8.40
2018,05,22,02,47,8.40
2018,05,22,02,48,8.40
2018,05,22,02,49,8.40
2018,05,22,02,50,8.50
2018,05,22,02,51,8.50
2018,05,22,02,52,8.50
2018,05,22,02,53,8.60
2018,05,22,02,54,8.60
2018,05,22,02,55,8.60
2018,05,22,02,56,8.60
2018,05,22,02,57,8.60
2018,05,22,02,58,8.60
2018,05,22,02,59,8.60
2018,05,22,03,00,8.60
2018,05,22,03,01,8.50
2018,05,22,03,02,8.50
2018,05,22,03,03,8.50
2018,05,22,03,04,8.40
2018,05,22,03,05,8.40
2018,05,22,03,06,8.40
2018,05,22,03,07,8.40
2018,05,22,03,08,8.30
2018,05,22,03,09,8.30
2018,05,22,03,10,8.30
2018,05,22,03,11,8.30
2018,05,22,03,12,8.30
2018,05,22,03,13,8.30
2018,05,22,03,14,8.30
2018,05,22,03,15,8.40
2018,05,22,03,16,8.30
2018,05,22,03,17,8.30
2018,05,22,03,18,8.30
2018,05,22,03,19,8.30
2018,05,22,03,20,8.30
2018,05,22,03,21,8.30
2018,05,22,03,22,8.30
2018,05,22,03,23,8.30
2018,05,22,03,24,8.40
2018,05,22,03,25,8.30
2018,05,22,03,26,8.30
2018,05,22,03,27,8.30
2018,05,22,03,28,8.30
2018,05,22,03,29,8.30
2018,05,22,03,30,8.30
2018,05,22,03,31,8.30
2018,05,22,03,32,8.30
2018,05,22,03,33,8.30
2018,05,22,03,34,8.30
2018,05,22,03,35,8.30
2018,05,22,03,36,8.30
2018,05,22,03,37,8.30
2018,05,22,03,38,8.30
2018,05,22,03,39,8.30
2018,05,22,03,40,8.30
2018,05,22,03,41,8.30
2018,05,22,03,42,8.30
2018,05,22,03,43,8.30
2018,05,22,03,44,8.30
2018,05,22,03,45,8.20
2018,05,22,03,46,8.20
2018,05,22,03,47,8.20
2018,05,22,03,48,8.20
2018,05,22,03,49,8.10
2018,05,22,03,50,8.10
2018,05,22,03,51,8.10
2018,05,22,03,52,8.10
2018,05,22,03,53,8.10
2018,05,22,03,54,8.10
2018,05,22,03,55,8.10
2018,05,22,03,56,8.20
2018,05,22,03,57,8.20
2018,05,22,03,58,8.30
2018,05,22,03,59,8.30
2018,05,22,04,00,8.30
2018,05,22,04,01,8.30
2018,05,22,04,02,8.40
2018,05,22,04,03,8.40
2018,05,22,04,04,8.30
2018,05,22,04,05,8.30
2018,05,22,04,06,8.30
2018,05,22,04,07,8.30
2018,05,22,04,08,8.30
2018,05,22,04,09,8.20
2018,05,22,04,10,8.20
2018,05,22,04,11,8.20
2018,05,22,04,12,8.10
2018,05,22,04,13,8.20
2018,05,22,04,14,8.20
2018,05,22,04,15,8.20
2018,05,22,04,16,8.20
2018,05,22,04,17,8.20
2018,05,22,04,18,8.20
2018,05,22,04,19,8.20
2018,05,22,04,20,8.20
2018,05,22,04,21,8.20
2018,05,22,04,22,8.20
2018,05,22,04,23,8.20
2018,05,22,04,24,8.10
2018,05,22,04,25,8.10
2018,05,22,04,26,8.10
2018,05,22,04,27,8.00
2018,05,22,04,28,8.00
2018,05,22,04,29,8.00
2018,05,22,04,30,8.00
2018,05,22,04,31,7.90
2018,05,22,04,32,7.90
2018,05,22,04,33,7.90
2018,05,22,04,34,7.80
2018,05,22,04,35,7.80
2018,05,22,04,36,7.80
2018,05,22,04,37,7.80
2018,05,22,04,38,7.80
2018,05,22,04,39,7.70
2018,05,22,04,40,7.70
2018,05,22,04,41,7.70
2018,05,22,04,42,7.70
2018,05,22,04,43,7.70
2018,05,22,04,44,7.70
2018,05,22,04,45,7.70
2018,05,22,04,46,7.70
2018,05,22,04,47,7.70
2018,05,22,04,48,7.70
2018,05,22,04,49,7.70
2018,05,22,04,50,7.70
2018,05,22,04,51,7.60
2018,05,22,04,52,7.60
2018,05,22,04,53,7.60
2018,05,22,04,54,7.60
2018,05,22,04,55,7.60
2018,05,22,04,56,7.60
2018,05,22,04,57,7.60
2018,05,22,04,58,7.60
2018,05,22,04,59,7.60
2018,05,22,05,00,7.60
2018,05,22,05,01,7.60
2018,05,22,05,02,7.60
2018,05,22,05,03,7.60
2018,05,22,05,04,7.50
2018,05,22,05,05,7.50
2018,05,22,05,06,7.50
2018,05,22,05,07,7.50
2018,05,22,05,08,7.40
2018,05,22,05,09,7.40
2018,05,22,05,10,7.40
2018,05,22,05,11,7.40
2018,05,22,05,12,7.40
2018,05,22,05,13,7.40
2018,05,22,05,14,7.40
2018,05,22,05,15,7.40
2018,05,22,05,16,7.40
2018,05,22,05,17,7.40
2018,05,22,05,18,7.40
2018,05,22,05,19,7.40
2018,05,22,05,20,7.40
2018,05,22,05,21,7.40
2018,05,22,05,22,7.40
2018,05,22,05,23,7.40
2018,05,22,05,24,7.30
2018,05,22,05,25,7.40
2018,05,22,05,26,7.40
2018,05,22,05,27,7.40
2018,05,22,05,28,7.40
2018,05,22,05,29,7.40
2018,05,22,05,30,7.40
2018,05,22,05,31,7.40
2018,05,22,05,32,7.40
2018,05,22,05,33,7.40
2018,05,22,05,34,7.40
2018,05,22,05,35,7.40
2018,05,22,05,36,7.40
2018,05,22,05,37,7.40
2018,05,22,05,38,7.40
2018,05,22,05,39,7.30
2018,05,22,05,40,7.30
2018,05,22,05,41,7.30
2018,05,22,05,42,7.30
2018,05,22,05,43,7.30
2018,05,22,05,44,7.40
2018,05,22,05,45,7.40
2018,05,22,05,46,7.40
2018,05,22,05,47,7.40
2018,05,22,05,48,7.40
2018,05,22,05,49,7.40
2018,05,22,05,50,7.40
2018,05,22,05,51,7.40
2018,05,22,05,52,7.30
2018,05,22,05,53,7.30
2018,05,22,05,54,7.40
2018,05,22,05,55,7.30
2018,05,22,05,56,7.30
2018,05,22,05,57,7.30
2018,05,22,05,58,7.30
2018,05,22,05,59,7.30
2018,05,22,06,00,7.30
2018,05,22,06,01,7.30
2018,05,22,06,02,7.30
2018,05,22,06,03,7.30
2018,05,22,06,04,7.30
2018,05,22,06,05,7.30
2018,05,22,06,06,7.30
2018,05,22,06,07,7.30
2018,05,22,06,08,7.30
2018,05,22,06,09,7.40
2018,05,22,06,10,7.40
2018,05,22,06,11,7.40
2018,05,22,06,12,7.40
2018,05,22,06,13,7.40
2018,05,22,06,14,7.50
2018,05,22,06,15,7.50
2018,05,22,06,16,7.50
2018,05,22,06,17,7.50
2018,05,22,06,18,7.50
2018,05,22,06,19,7.60
2018,05,22,06,20,7.60
2018,05,22,06,21,7.60
2018,05,22,06,22,7.70
2018,05,22,06,23,7.70
2018,05,22,06,24,7.80
2018,05,22,06,25,7.80
2018,05,22,06,26,7.80
2018,05,22,06,27,7.90
2018,05,22,06,28,7.90
2018,05,22,06,29,7.90
2018,05,22,06,30,8.00
2018,05,22,06,31,8.00
2018,05,22,06,32,8.00
2018,05,22,06,33,8.10
2018,05,22,06,34,8.10
2018,05,22,06,35,8.20
2018,05,22,06,36,8.20
2018,05,22,06,37,8.20
2018,05,22,06,38,8.20
2018,05,22,06,39,8.20
2018,05,22,06,40,8.20
2018,05,22,06,41,8.30
2018,05,22,06,42,8.30
2018,05,22,06,43,8.30
2018,05,22,06,44,8.30
2018,05,22,06,45,8.40
2018,05,22,06,46,8.40
2018,05,22,06,47,8.40
2018,05,22,06,48,8.50
2018,05,22,06,49,8.50
2018,05,22,06,50,8.50
2018,05,22,06,51,8.60
2018,05,22,06,52,8.60
2018,05,22,06,53,8.60
2018,05,22,06,54,8.60
2018,05,22,06,55,8.60
2018,05,22,06,56,8.60
2018,05,22,06,57,8.60
2018,05,22,06,58,8.60
2018,05,22,06,59,8.70
2018,05,22,07,00,8.70
2018,05,22,07,01,8.70
2018,05,22,07,02,8.80
2018,05,22,07,03,8.90
2018,05,22,07,04,8.90
2018,05,22,07,05,9.00
2018,05,22,07,06,9.00
2018,05,22,07,07,9.10
2018,05,22,07,08,9.20
2018,05,22,07,09,9.30
2018,05,22,07,10,9.40
2018,05,22,07,11,9.50
2018,05,22,07,12,9.60
2018,05,22,07,13,9.70
2018,05,22,07,14,9.70
2018,05,22,07,15,9.80
2018,05,22,07,16,9.90
2018,05,22,07,17,10.00
2018,05,22,07,18,10.00
2018,05,22,07,19,10.10
2018,05,22,07,20,10.20
2018,05,22,07,21,10.30
2018,05,22,07,22,10.40
2018,05,22,07,23,10.50
2018,05,22,07,24,10.60
2018,05,22,07,25,10.70
2018,05,22,07,26,10.80
2018,05,22,07,27,10.80
2018,05,22,07,28,10.90
2018,05,22,07,29,11.00
2018,05,22,07,30,11.20
2018,05,22,07,31,11.30
2018,05,22,07,32,11.40
2018,05,22,07,33,11.60
2018,05,22,07,34,11.70
2018,05,22,07,35,11.80
2018,05,22,07,36,11.80
2018,05,22,07,37,11.90
2018,05,22,07,38,12.00
2018,05,22,07,39,12.10
2018,05,22,07,40,12.20
2018,05,22,07,41,12.20
2018,05,22,07,42,12.30
2018,05,22,07,43,12.30
2018,05,22,07,44,12.30
2018,05,22,07,45,12.30
2018,05,22,07,46,12.30
2018,05,22,07,47,12.30
2018,05,22,07,48,12.30
2018,05,22,07,49,12.20
2018,05,22,07,50,12.20
2018,05,22,07,51,12.20
2018,05,22,07,52,12.20
2018,05,22,07,53,12.20
2018,05,22,07,54,12.30
2018,05,22,07,55,12.30
2018,05,22,07,56,12.30
2018,05,22,07,57,12.30
2018,05,22,07,58,12.30
2018,05,22,07,59,12.30
2018,05,22,08,00,12.30
2018,05,22,08,01,12.30
2018,05,22,08,02,12.30
2018,05,22,08,03,12.30
2018,05,22,08,04,12.30
2018,05,22,08,05,12.30
2018,05,22,08,06,12.30
2018,05,22,08,07,12.30
2018,05,22,08,08,12.30
2018,05,22,08,09,12.30
2018,05,22,08,10,12.40
2018,05,22,08,11,12.40
2018,05,22,08,12,12.40
2018,05,22,08,13,12.40
2018,05,22,08,14,12.50
2018,05,22,08,15,12.50
2018,05,22,08,16,12.60
2018,05,22,08,17,12.60
2018,05,22,08,18,12.70
2018,05,22,08,19,12.70
2018,05,22,08,20,12.80
2018,05,22,08,21,12.80
2018,05,22,08,22,12.90
2018,05,22,08,23,13.00
2018,05,22,08,24,13.00
2018,05,22,08,25,13.10
2018,05,22,08,26,13.20
2018,05,22,08,27,13.20
2018,05,22,08,28,13.30
2018,05,22,08,29,13.40
2018,05,22,08,30,13.40
2018,05,22,08,31,13.50
2018,05,22,08,32,13.50
2018,05,22,08,33,13.60
2018,05,22,08,34,13.60
2018,05,22,08,35,13.70
2018,05,22,08,36,13.70
2018,05,22,08,37,13.70
2018,05,22,08,38,13.80
2018,05,22,08,39,13.80
2018,05,22,08,40,13.80
2018,05,22,08,41,13.90
2018,05,22,08,42,13.90
2018,05,22,08,43,14.00
2018,05,22,08,44,14.00
2018,05,22,08,45,14.10
2018,05,22,08,46,14.10
2018,05,22,08,47,14.10
2018,05,22,08,48,14.20
2018,05,22,08,49,14.30
2018,05,22,08,50,14.30
2018,05,22,08,51,14.30
2018,05,22,08,52,14.40
2018,05,22,08,53,14.40
2018,05,22,08,54,14.40
2018,05,22,08,55,14.40
2018,05,22,08,56,14.50
2018,05,22,08,57,14.50
2018,05,22,08,58,14.60
2018,05,22,08,59,14.60
2018,05,22,09,00,14.60
2018,05,22,09,01,14.70
2018,05,22,09,02,14.70
2018,05,22,09,03,14.80
2018,05,22,09,04,14.80
2018,05,22,09,05,14.80
2018,05,22,09,06,14.90
2018,05,22,09,07,14.90
2018,05,22,09,08,14.90
2018,05,22,09,09,14.90
2018,05,22,09,10,14.90
2018,05,22,09,11,14.90
2018,05,22,09,12,15.00
2018,05,22,09,13,15.10
2018,05,22,09,14,15.10
2018,05,22,09,15,15.20
2018,05,22,09,16,15.30
2018,05,22,09,17,15.30
2018,05,22,09,18,15.40
2018,05,22,09,19,15.40
2018,05,22,09,20,15.50
2018,05,22,09,21,15.60
2018,05,22,09,22,15.70
2018,05,22,09,23,15.70
2018,05,22,09,24,15.80
2018,05,22,09,25,15.80
2018,05,22,09,26,15.80
2018,05,22,09,27,15.80
2018,05,22,09,28,15.90
2018,05,22,09,29,15.90
2018,05,22,09,30,15.90
2018,05,22,09,31,15.90
2018,05,22,09,32,16.00
2018,05,22,09,33,16.00
2018,05,22,09,34,16.10
2018,05,22,09,35,16.20
2018,05,22,09,36,16.20
2018,05,22,09,37,16.30
2018,05,22,09,38,16.30
2018,05,22,09,39,16.40
2018,05,22,09,40,16.40
2018,05,22,09,41,16.50
2018,05,22,09,42,16.50
2018,05,22,09,43,16.50
2018,05,22,09,44,16.50
2018,05,22,09,45,16.50
2018,05,22,09,46,16.40
2018,05,22,09,47,16.40
2018,05,22,09,48,16.40
2018,05,22,09,49,16.40
2018,05,22,09,50,16.40
2018,05,22,09,51,16.40
2018,05,22,09,52,16.50
2018,05,22,09,53,16.50
2018,05,22,09,54,16.60
2018,05,22,09,55,16.60
2018,05,22,09,56,16.70
2018,05,22,09,57,16.70
2018,05,22,09,58,16.70
2018,05,22,09,59,16.70
2018,05,22,10,00,16.70
2018,05,22,10,01,16.70
2018,05,22,10,02,16.70
2018,05,22,10,03,16.60
2018,05,22,10,04,16.60
2018,05,22,10,05,16.50
2018,05,22,10,06,16.40
2018,05,22,10,07,16.40
2018,05,22,10,08,16.30
2018,05,22,10,09,16.30
2018,05,22,10,10,16.20
2018,05,22,10,11,16.20
2018,05,22,10,12,16.10
2018,05,22,10,13,16.10
2018,05,22,10,14,16.10
2018,05,22,10,15,16.10
2018,05,22,10,16,16.10
2018,05,22,10,17,16.10
2018,05,22,10,18,16.10
2018,05,22,10,19,16.20
2018,05,22,10,20,16.20
2018,05,22,10,21,16.30
2018,05,22,10,22,16.30
2018,05,22,10,23,16.40
2018,05,22,10,24,16.40
2018,05,22,10,25,16.50
2018,05,22,10,26,16.50
2018,05,22,10,27,16.50
2018,05,22,10,28,16.60
2018,05,22,10,29,16.60
2018,05,22,10,30,16.70
2018,05,22,10,31,16.70
2018,05,22,10,32,16.70
2018,05,22,10,33,16.70
2018,05,22,10,34,16.70
2018,05,22,10,35,16.60
2018,05,22,10,36,16.60
2018,05,22,10,37,16.60
2018,05,22,10,38,16.60
2018,05,22,10,39,16.70
2018,05,22,10,40,16.70
2018,05,22,10,41,16.70
2018,05,22,10,42,16.70
2018,05,22,10,43,16.70
2018,05,22,10,44,16.70
2018,05,22,10,45,16.70
2018,05,22,10,46,16.70
2018,05,22,10,47,16.60
2018,05,22,10,48,16.60
2018,05,22,10,49,16.60
2018,05,22,10,50,16.50
2018,05,22,10,51,16.50
2018,05,22,10,52,16.50
2018,05,22,10,53,16.50
2018,05,22,10,54,16.40
2018,05,22,10,55,16.40
2018,05,22,10,56,16.30
2018,05,22,10,57,16.30
2018,05,22,10,58,16.30
2018,05,22,10,59,16.20
2018,05,22,11,00,16.20
2018,05,22,11,01,16.20
2018,05,22,11,02,16.20
2018,05,22,11,03,16.10
2018,05,22,11,04,16.10
2018,05,22,11,05,16.10
2018,05,22,11,06,16.10
2018,05,22,11,07,16.10
2018,05,22,11,08,16.10
2018,05,22,11,09,16.20
2018,05,22,11,10,16.30
2018,05,22,11,11,16.40
2018,05,22,11,12,16.50
2018,05,22,11,13,16.60
2018,05,22,11,14,16.70
2018,05,22,11,15,16.80
2018,05,22,11,16,16.80
2018,05,22,11,17,16.90
2018,05,22,11,18,16.90
2018,05,22,11,19,16.90
2018,05,22,11,20,17.00
2018,05,22,11,21,17.10
2018,05,22,11,22,17.10
2018,05,22,11,23,17.10
2018,05,22,11,24,17.10
2018,05,22,11,25,17.10
2018,05,22,11,26,17.10
2018,05,22,11,27,17.10
2018,05,22,11,28,17.10
2018,05,22,11,29,17.10
2018,05,22,11,30,17.20
2018,05,22,11,31,17.20
2018,05,22,11,32,17.30
2018,05,22,11,33,17.30
2018,05,22,11,34,17.30
2018,05,22,11,35,17.40
2018,05,22,11,36,17.40
2018,05,22,11,37,17.50
2018,05,22,11,38,17.60
2018,05,22,11,39,17.80
2018,05,22,11,40,17.80
2018,05,22,11,41,17.80
2018,05,22,11,42,17.80
2018,05,22,11,43,17.80
2018,05,22,11,44,17.70
2018,05,22,11,45,17.60
2018,05,22,11,46,17.50
2018,05,22,11,47,17.50
2018,05,22,11,48,17.50
2018,05,22,11,49,17.50
2018,05,22,11,50,17.60
2018,05,22,11,51,17.60
2018,05,22,11,52,17.60
2018,05,22,11,53,17.70
2018,05,22,11,54,17.70
2018,05,22,11,55,17.70
2018,05,22,11,56,17.70
2018,05,22,11,57,17.70
2018,05,22,11,58,17.70
2018,05,22,11,59,17.70
2018,05,22,12,00,17.70
2018,05,22,12,01,17.70
2018,05,22,12,02,17.60
2018,05,22,12,03,17.50
2018,05,22,12,04,17.50
2018,05,22,12,05,17.40
2018,05,22,12,06,17.40
2018,05,22,12,07,17.40
2018,05,22,12,08,17.40
2018,05,22,12,09,17.40
2018,05,22,12,10,17.40
2018,05,22,12,11,17.40
2018,05,22,12,12,17.50
2018,05,22,12,13,17.60
2018,05,22,12,14,17.70
2018,05,22,12,15,17.80
2018,05,22,12,16,17.90
2018,05,22,12,17,18.10
2018,05,22,12,18,18.20
2018,05,22,12,19,18.30
2018,05,22,12,20,18.30
2018,05,22,12,21,18.40
2018,05,22,12,22,18.40
2018,05,22,12,23,18.50
2018,05,22,12,24,18.40
2018,05,22,12,25,18.50
2018,05,22,12,26,18.50
2018,05,22,12,27,18.50
2018,05,22,12,28,18.50
2018,05,22,12,29,18.50
2018,05,22,12,30,18.60
2018,05,22,12,31,18.70
2018,05,22,12,32,18.70
2018,05,22,12,33,18.70
2018,05,22,12,34,18.70
2018,05,22,12,35,18.70
2018,05,22,12,36,18.70
2018,05,22,12,37,18.70
2018,05,22,12,38,18.80
2018,05,22,12,39,18.80
2018,05,22,12,40,18.90
2018,05,22,12,41,19.00
2018,05,22,12,42,19.00
2018,05,22,12,43,19.10
2018,05,22,12,44,19.10
2018,05,22,12,45,19.10
2018,05,22,12,46,19.10
2018,05,22,12,47,19.10
2018,05,22,12,48,19.10
2018,05,22,12,49,19.20
2018,05,22,12,50,19.20
2018,05,22,12,51,19.30
2018,05,22,12,52,19.30
2018,05,22,12,53,19.30
2018,05,22,12,54,19.30
2018,05,22,12,55,19.40
2018,05,22,12,56,19.30
2018,05,22,12,57,19.30
2018,05,22,12,58,19.20
2018,05,22,12,59,19.20
2018,05,22,13,00,19.20
2018,05,22,13,01,19.20
2018,05,22,13,02,19.30
2018,05,22,13,03,19.30
2018,05,22,13,04,19.30
2018,05,22,13,05,19.40
2018,05,22,13,06,19.40
2018,05,22,13,07,19.40
2018,05,22,13,08,19.30
2018,05,22,13,09,19.30
2018,05,22,13,10,19.20
2018,05,22,13,11,19.20
2018,05,22,13,12,19.20
2018,05,22,13,13,19.20
2018,05,22,13,14,19.30
2018,05,22,13,15,19.30
2018,05,22,13,16,19.30
2018,05,22,13,17,19.40
2018,05,22,13,18,19.40
2018,05,22,13,19,19.50
2018,05,22,13,20,19.50
2018,05,22,13,21,19.60
2018,05,22,13,22,19.60
2018,05,22,13,23,19.70
2018,05,22,13,24,19.70
2018,05,22,13,25,19.70
2018,05,22,13,26,19.70
2018,05,22,13,27,19.70
2018,05,22,13,28,19.70
2018,05,22,13,29,19.70
2018,05,22,13,30,19.70
2018,05,22,13,31,19.80
2018,05,22,13,32,19.80
2018,05,22,13,33,19.80
2018,05,22,13,34,19.80
2018,05,22,13,35,19.80
2018,05,22,13,36,19.80
2018,05,22,13,37,19.80
2018,05,22,13,38,19.80
2018,05,22,13,39,19.70
2018,05,22,13,40,19.70
2018,05,22,13,41,19.70
2018,05,22,13,42,19.80
2018,05,22,13,43,19.80
2018,05,22,13,44,19.90
2018,05,22,13,45,19.90
2018,05,22,13,46,19.90
2018,05,22,13,47,19.90
2018,05,22,13,48,19.90
2018,05,22,13,49,19.90
2018,05,22,13,50,19.80
2018,05,22,13,51,19.80
2018,05,22,13,52,19.80
2018,05,22,13,53,19.80
2018,05,22,13,54,19.90
2018,05,22,13,55,19.90
2018,05,22,13,56,19.90
2018,05,22,13,57,20.00
2018,05,22,13,58,20.00
2018,05,22,13,59,20.10
2018,05,22,14,00,20.00
2018,05,22,14,01,20.00
2018,05,22,14,02,20.00
2018,05,22,14,03,20.00
2018,05,22,14,04,20.00
2018,05,22,14,05,20.10
2018,05,22,14,06,20.10
2018,05,22,14,07,20.20
2018,05,22,14,08,20.30
2018,05,22,14,09,20.30
2018,05,22,14,10,20.20
2018,05,22,14,11,20.10
2018,05,22,14,12,20.00
2018,05,22,14,13,19.90
2018,05,22,14,14,19.80
2018,05,22,14,15,19.80
2018,05,22,14,16,19.80
2018,05,22,14,17,19.90
2018,05,22,14,18,19.90
2018,05,22,14,19,19.90
2018,05,22,14,20,19.90
2018,05,22,14,21,20.00
2018,05,22,14,22,20.00
2018,05,22,14,23,19.90
2018,05,22,14,24,19.90
2018,05,22,14,25,19.80
2018,05,22,14,26,19.80
2018,05,22,14,27,19.90
2018,05,22,14,28,20.00
2018,05,22,14,29,20.00
2018,05,22,14,30,20.10
2018,05,22,14,31,20.30
2018,05,22,14,32,20.30
2018,05,22,14,33,20.40
2018,05,22,14,34,20.50
2018,05,22,14,35,20.60
2018,05,22,14,36,20.70
2018,05,22,14,37,20.70
2018,05,22,14,38,20.80
2018,05,22,14,39,20.80
2018,05,22,14,40,20.80
2018,05,22,14,41,20.90
2018,05,22,14,42,20.90
2018,05,22,14,43,20.90
2018,05,22,14,44,20.90
2018,05,22,14,45,20.90
2018,05,22,14,46,21.00
2018,05,22,14,47,21.00
2018,05,22,14,48,21.10
2018,05,22,14,49,21.20
2018,05,22,14,50,21.30
2018,05,22,14,51,21.30
2018,05,22,14,52,21.30
2018,05,22,14,53,21.30
2018,05,22,14,54,21.40
2018,05,22,14,55,21.40
2018,05,22,14,56,21.40
2018,05,22,14,57,21.40
2018,05,22,14,58,21.30
2018,05,22,14,59,21.20
2018,05,22,15,00,21.20
2018,05,22,15,01,21.10
2018,05,22,15,02,21.00
2018,05,22,15,03,20.90
2018,05,22,15,04,20.90
2018,05,22,15,05,20.80
2018,05,22,15,06,20.80
2018,05,22,15,07,20.70
2018,05,22,15,08,20.70
2018,05,22,15,09,20.60
2018,05,22,15,10,20.60
2018,05,22,15,11,20.70
2018,05,22,15,12,20.80
2018,05,22,15,13,20.80
2018,05,22,15,14,20.90
2018,05,22,15,15,20.90
2018,05,22,15,16,21.00
2018,05,22,15,17,21.00
2018,05,22,15,18,21.10
2018,05,22,15,19,21.10
2018,05,22,15,20,21.10
2018,05,22,15,21,21.10
2018,05,22,15,22,21.20
2018,05,22,15,23,21.30
2018,05,22,15,24,21.40
2018,05,22,15,25,21.50
2018,05,22,15,26,21.60
2018,05,22,15,27,21.70
2018,05,22,15,28,21.80
2018,05,22,15,29,22.00
2018,05,22,15,30,22.10
2018,05,22,15,31,22.20
2018,05,22,15,32,22.20
2018,05,22,15,33,22.30
2018,05,22,15,34,22.40
2018,05,22,15,35,22.40
2018,05,22,15,36,22.50
2018,05,22,15,37,22.50
2018,05,22,15,38,22.60
2018,05,22,15,39,22.70
2018,05,22,15,40,22.70
2018,05,22,15,41,22.80
2018,05,22,15,42,22.90
2018,05,22,15,43,22.90
2018,05,22,15,44,23.00
2018,05,22,15,45,23.00
2018,05,22,15,46,23.10
2018,05,22,15,47,23.10
2018,05,22,15,48,23.20
2018,05,22,15,49,23.20
2018,05,22,15,50,23.30
2018,05,22,15,51,23.30
2018,05,22,15,52,23.30
2018,05,22,15,53,23.30
2018,05,22,15,54,23.30
2018,05,22,15,55,23.40
2018,05,22,15,56,23.40
2018,05,22,15,57,23.50
2018,05,22,15,58,23.50
2018,05,22,15,59,23.60
2018,05,22,16,00,23.60
2018,05,22,16,01,23.70
2018,05,22,16,02,23.60
2018,05,22,16,03,23.60
2018,05,22,16,04,23.60
2018,05,22,16,05,23.60
2018,05,22,16,06,23.60
2018,05,22,16,07,23.60
2018,05,22,16,08,23.70
2018,05,22,16,09,23.70
2018,05,22,16,10,23.60
2018,05,22,16,11,23.60
2018,05,22,16,12,23.60
2018,05,22,16,13,23.60
2018,05,22,16,14,23.60
2018,05,22,16,15,23.60
2018,05,22,16,16,23.60
2018,05,22,16,17,23.70
2018,05,22,16,18,23.60
2018,05,22,16,19,23.50
2018,05,22,16,20,23.50
2018,05,22,16,21,23.40
2018,05,22,16,22,23.30
2018,05,22,16,23,23.30
2018,05,22,16,24,23.20
2018,05,22,16,25,23.10
2018,05,22,16,26,23.00
2018,05,22,16,27,23.00
2018,05,22,16,28,22.90
2018,05,22,16,29,22.90
2018,05,22,16,30,22.80
2018,05,22,16,31,22.80
2018,05,22,16,32,22.60
2018,05,22,16,33,22.50
2018,05,22,16,34,22.40
2018,05,22,16,35,22.30
2018,05,22,16,36,22.20
2018,05,22,16,37,22.20
2018,05,22,16,38,22.10
2018,05,22,16,39,22.10
2018,05,22,16,40,22.00
2018,05,22,16,41,22.00
2018,05,22,16,42,22.00
2018,05,22,16,43,21.90
2018,05,22,16,44,21.90
2018,05,22,16,45,21.80
2018,05,22,16,46,21.80
2018,05,22,16,47,21.80
2018,05,22,16,48,21.80
2018,05,22,16,49,21.80
2018,05,22,16,50,21.80
2018,05,22,16,51,21.90
2018,05,22,16,52,21.90
2018,05,22,16,53,21.90
2018,05,22,16,54,21.90
2018,05,22,16,55,21.90
2018,05,22,16,56,22.00
2018,05,22,16,57,22.00
2018,05,22,16,58,21.90
2018,05,22,16,59,21.90
2018,05,22,17,00,21.90
2018,05,22,17,01,21.90
2018,05,22,17,02,22.00
2018,05,22,17,03,22.00
2018,05,22,17,04,22.00
2018,05,22,17,05,22.00
2018,05,22,17,06,21.90
2018,05,22,17,07,21.90
2018,05,22,17,08,21.80
2018,05,22,17,09,21.80
2018,05,22,17,10,21.80
2018,05,22,17,11,21.80
2018,05,22,17,12,21.80
2018,05,22,17,13,21.80
2018,05,22,17,14,21.70
2018,05,22,17,15,21.70
2018,05,22,17,16,21.70
2018,05,22,17,17,21.70
2018,05,22,17,18,21.60
2018,05,22,17,19,21.50
2018,05,22,17,20,21.40
2018,05,22,17,21,21.30
2018,05,22,17,22,21.30
2018,05,22,17,23,21.30
2018,05,22,17,24,21.30
2018,05,22,17,25,21.30
2018,05,22,17,26,21.30
2018,05,22,17,27,21.30
2018,05,22,17,28,21.20
2018,05,22,17,29,21.20
2018,05,22,17,30,21.20
2018,05,22,17,31,21.20
2018,05,22,17,32,21.10
2018,05,22,17,33,21.10
2018,05,22,17,34,21.00
2018,05,22,17,35,21.00